Home   Weather   Palma   Past weeks

Flag for Spain Past Weather in Palma, Majorca, Spain — Yesterday and Last 2 Weeks

Now
70 °F

Passing clouds.


Feels Like: 70 °F
Forecast: 65 / 78 °F
Wind: 2 mph from North

Location: Palma De Mallorca / Son San Juan

Current Time: Sep 29, 2016 at 8:56:49 PM

Latest Report: Sep 29, 2016 at 8:00 PM


Visibility: N/A

Pressure: 30.21 "Hg

Humidity: 83%

Dew Point: 64 °F

Location of PalmaLocation

Past Weather in Palma — Graph

°F

Palma Temperature Yesterday

Maximum temperature yesterday: 82 °F (at 4:00 PM)
Minimum temperature yesterday: 61 °F (at 4:30 AM)
Average temperature yesterday: 71 °F

High & Low Weather Summary for the Past Weeks

 TemperatureHumidityPressure
High82 °F (Sep 16, 2:00 PM)100% (Sep 20, 9:30 PM)30.36 "Hg (Sep 20, 9:30 PM)
Low54 °F (Sep 19, 5:30 AM)32% (Sep 16, 4:30 PM)29.89 "Hg (Sep 14, 7:00 PM)
Average70 °F74%30.10 "Hg
* Reported Sep 14 7:00 PM — Sep 29 7:30 PM, Palma, Weather by CustomWeather, © 2016

Note: Actual official high and low records may vary slightly from our data, if they occured in-between our weather recording intervals... More about our weather records

Advertising

Palma Weather History for the Previous 24 Hours

Scroll right to see more
 ConditionsComfort  
Time TempWeatherWind HumidityBarometerVisibility
7:30 PM
Thu, Sep 29
72 °FScattered clouds.5 mph78%30.21 "HgN/A
7:00 PM72 °FScattered clouds.10 mph73%30.21 "HgN/A
6:30 PM72 °FScattered clouds.9 mph78%30.21 "HgN/A
6:00 PM75 °FScattered clouds.3 mph74%30.21 "HgN/A
5:30 PM79 °FScattered clouds.12 mph54%30.21 "HgN/A
5:00 PM79 °FScattered clouds.12 mph54%30.21 "HgN/A
4:30 PM79 °FScattered clouds.10 mph61%30.21 "HgN/A
4:00 PM79 °FScattered clouds.7 mph58%30.21 "HgN/A
3:30 PM81 °FScattered clouds.8 mph51%30.24 "HgN/A
3:00 PM79 °FScattered clouds.12 mph54%30.24 "HgN/A
2:30 PM77 °FScattered clouds.9 mph61%30.27 "HgN/A
2:00 PM81 °FScattered clouds.5 mph54%30.27 "HgN/A
1:30 PM81 °FScattered clouds.6 mph48%30.27 "HgN/A
1:00 PM79 °FScattered clouds.5 mph54%30.30 "HgN/A
12:30 PM77 °FPassing clouds.3 mph57%30.30 "HgN/A
12:00 PM77 °FPassing clouds.5 mph57%30.30 "HgN/A
11:30 AM77 °FPassing clouds.6 mph57%30.33 "HgN/A
11:00 AM75 °FPassing clouds.6 mph65%30.33 "HgN/A
10:30 AM75 °FPassing clouds.5 mph65%30.33 "HgN/A
10:00 AM72 °FPassing clouds.2 mph78%30.33 "HgN/A
9:30 AM68 °FPassing clouds.2 mph83%30.33 "HgN/A
9:00 AM64 °FPassing clouds.3 mph94%30.33 "HgN/A
8:30 AM61 °FPassing clouds.3 mph100%30.33 "HgN/A
8:00 AM59 °FPassing clouds.3 mph100%30.33 "HgN/A
7:30 AM59 °FPassing clouds.1 mph100%30.30 "HgN/A
7:00 AM59 °FPassing clouds.2 mph100%30.30 "HgN/A
6:30 AM61 °FPassing clouds.2 mph100%30.30 "HgN/A
6:00 AM59 °FPassing clouds.1 mph100%30.33 "HgN/A
5:30 AM59 °FPassing clouds.2 mph100%30.33 "HgN/A
5:00 AM63 °FPassing clouds.1 mph94%30.33 "HgN/A
4:30 AM61 °FPassing clouds.1 mph100%30.33 "HgN/A
4:00 AM61 °FPassing clouds.2 mph100%30.33 "HgN/A
3:30 AM63 °FPassing clouds.No wind100%30.36 "HgN/A
3:00 AM61 °FPassing clouds.5 mph100%30.36 "HgN/A
2:30 AM63 °FPassing clouds.3 mph94%30.36 "HgN/A
2:00 AM64 °FPassing clouds.3 mph94%30.36 "HgN/A
1:30 AM64 °FPassing clouds.3 mph88%30.36 "HgN/A
1:00 AM64 °FPassing clouds.3 mph94%30.36 "HgN/A
12:30 AM64 °FPassing clouds.6 mph94%30.36 "HgN/A
12:00 AM64 °FPassing clouds.2 mph94%30.36 "HgN/A
11:30 PM
Wed, Sep 28
66 °FPassing clouds.6 mph88%30.36 "HgN/A
11:00 PM68 °FPassing clouds.2 mph83%30.36 "HgN/A
10:30 PM70 °FPassing clouds.3 mph78%30.36 "HgN/A
10:00 PM70 °FPassing clouds.5 mph78%30.36 "HgN/A
9:30 PM72 °FPassing clouds.7 mph73%30.36 "HgN/A
9:00 PM72 °FPassing clouds.8 mph73%30.33 "HgN/A
8:30 PM73 °FPassing clouds.7 mph69%30.33 "HgN/A
8:00 PM75 °FPassing clouds.10 mph65%30.33 "HgN/A
Weather by CustomWeather, © 2016

See weather overviewHow to use our weather pages